Greenville, MS

3:23 PM CDT on May 23, 2017 (GMT -0500)
Mid Delta Regional

Weather History for KGLH - June, 2013

Change the Weather History Date:

Wednesday, June 5, 2013

  Actual Average Record
Temperature  
Mean Temperature 81 °F 77 °F  
Max Temperature 90 °F 87 °F 101 °F (1977)
Min Temperature 71 °F 67 °F 51 °F (1946)
Degree Days  
Heating Degree Days 0 0  
Month to date heating degree days 0 0  
Since 1 June heating degree days 0 0  
Since 1 July heating degree days 2695 2774  
Cooling Degree Days 16 12  
Month to date cooling degree days 57 58  
Year to date cooling degree days 340 380  
Since 1 June cooling degree days 57 58  
Growing Degree Days 30 (Base 50)    
Moisture  
Dew Point 71 °F    
Average Humidity 82    
Maximum Humidity 93    
Minimum Humidity 70    
Precipitation  
Precipitation 0.06 in 0.13 in 1.79 in (1957)
Month to date precipitation 1.20 0.53  
Year to date precipitation 25.71 24.79  
Sea Level Pressure  
Sea Level Pressure 29.90 in    
Wind  
Wind Speed 5 mph (South)    
Max Wind Speed 22 mph    
Max Gust Speed 28 mph    
Visibility 9 miles    
Events Rain , Thunderstorm    
T = Trace of Precipitation, MM = Missing Value Source: NWS Daily Summary

Daily Weather History Graph

Daily Weather History Graph

Search for Another Location

Airport or City:

Trip Planner

Search our weather history database for the weather conditions in past years. The results will help you decide how hot, cold, wet, or windy it might be!

Date:

Astronomy

Jun. 05, 2013 Rise Set
Actual Time 5:54 AM CDT 8:11 PM CDT
Civil Twilight 5:25 AM CDT 8:39 PM CDT
Nautical Twilight 4:50 AM CDT 9:15 PM CDT
Astronomical Twilight 4:12 AM CDT 9:53 PM CDT
Moon 3:51 AM CDT (6/5) 5:43 PM CDT (6/5)
Length of Visible Light 15h 14m
Length of Day
14h 17m
Waning Crescent, 8% of the Moon is Illuminated
Jun 5
Waning Crescent
Jun 8
New
Jun 16
First Quarter
Jun 23
Full
Jun 29
Last Quarter

Hourly Weather History & Observations

Time (CDT) Temp. Heat Index Dew Point Humidity Pressure Visibility Wind Dir Wind Speed Gust Speed Precip Events Conditions
12:53 AM 73.0 °F - 69.1 °F 87% 29.94 in 10.0 mi North 3.5 mph - N/A   Clear
1:53 AM 72.0 °F - 69.1 °F 91% 29.92 in 10.0 mi North 3.5 mph - N/A   Clear
2:53 AM 72.0 °F - 69.1 °F 91% 29.91 in 10.0 mi NNE 3.5 mph - N/A   Clear
3:53 AM 73.0 °F - 70.0 °F 90% 29.90 in 10.0 mi Calm Calm - N/A   Clear
4:53 AM 72.0 °F - 69.1 °F 91% 29.91 in 8.0 mi Calm Calm - N/A   Clear
5:53 AM 72.0 °F - 70.0 °F 93% 29.91 in 7.0 mi ESE 3.5 mph - N/A   Clear
6:53 AM 73.9 °F - 72.0 °F 93% 29.92 in 5.0 mi Calm Calm - N/A   Clear
7:53 AM 77.0 °F - 73.9 °F 90% 29.92 in 8.0 mi South 6.9 mph - N/A   Clear
8:53 AM 81.0 °F 86.7 °F 75.0 °F 82% 29.94 in 10.0 mi South 8.1 mph - N/A   Clear
9:53 AM 84.9 °F 93.3 °F 75.0 °F 72% 29.94 in 10.0 mi West 6.9 mph - N/A   Clear
10:53 AM 86.0 °F 96.0 °F 75.9 °F 72% 29.95 in 10.0 mi Variable 4.6 mph - N/A   Scattered Clouds
11:53 AM 88.0 °F 100.2 °F 77.0 °F 70% 29.93 in 10.0 mi WNW 6.9 mph - N/A   Partly Cloudy
12:02 PM 87.8 °F 97.6 °F 75.2 °F 66% 29.90 in 10.0 mi NW 9.2 mph - N/A Thunderstorm Partly Cloudy
12:53 PM 88.0 °F 95.6 °F 73.0 °F 61% 29.90 in 10.0 mi NW 8.1 mph - N/A Thunderstorm Scattered Clouds
1:46 PM 77.0 °F - 66.2 °F 69% 29.91 in 10.0 mi SSE 16.1 mph 27.6 mph 0.00 in Rain , Thunderstorm Light Thunderstorms and Rain
1:53 PM 73.9 °F - 69.1 °F 85% 29.92 in 10.0 mi SE 18.4 mph 26.5 mph 0.00 in Rain , Thunderstorm Light Thunderstorms and Rain
2:34 PM 73.4 °F - 69.8 °F 88% 29.89 in 10.0 mi South 6.9 mph - 0.00 in   Scattered Clouds
2:43 PM 73.4 °F - 69.8 °F 88% 29.89 in 10.0 mi South 6.9 mph - 0.00 in Thunderstorm Mostly Cloudy
2:53 PM 73.9 °F - 70.0 °F 87% 29.92 in 10.0 mi South 9.2 mph - 0.00 in Thunderstorm Mostly Cloudy
3:21 PM 73.4 °F - 69.8 °F 88% 29.90 in 2.5 mi WNW 9.2 mph - 0.04 in Rain Heavy Rain
3:26 PM 73.4 °F - 69.8 °F 88% 29.89 in 1.5 mi West 4.6 mph - 0.06 in Rain , Thunderstorm Heavy Thunderstorms and Rain
3:32 PM 73.4 °F - 69.8 °F 88% 29.88 in 3.0 mi Calm Calm - 0.06 in Rain , Thunderstorm Light Thunderstorms and Rain
3:53 PM 73.9 °F - 71.1 °F 91% 29.89 in 10.0 mi Calm Calm - 0.06 in   Scattered Clouds
4:53 PM 75.9 °F - 71.1 °F 85% 29.82 in 10.0 mi SSE 6.9 mph - N/A   Clear
5:53 PM 77.0 °F - 70.0 °F 79% 29.81 in 10.0 mi SE 8.1 mph - N/A   Clear
6:53 PM 78.1 °F - 71.1 °F 79% 29.84 in 10.0 mi ESE 5.8 mph - N/A   Clear
7:53 PM 75.9 °F - 72.0 °F 87% 29.84 in 10.0 mi East 4.6 mph - N/A   Scattered Clouds
8:53 PM 73.9 °F - 70.0 °F 87% 29.85 in 10.0 mi Calm Calm - N/A   Clear
9:53 PM 73.0 °F - 70.0 °F 90% 29.86 in 10.0 mi South 4.6 mph - N/A   Scattered Clouds
10:53 PM 73.0 °F - 70.0 °F 90% 29.88 in 10.0 mi West 3.5 mph - 0.00 in   Partly Cloudy
11:53 PM 71.1 °F - 69.1 °F 93% 29.87 in 9.0 mi South 4.6 mph - N/A   Partly Cloudy